Location: Aragüita
(10.0436°N, 67.8028°W)
Time: 14:17:49
(UTC+00:00)

Cosmos 1862 Rocket - Pass Details

Date: 20 January 2026
Orbit: 596 x 627 km, 82.5° (Epoch: 8 February)

Event Time Altitude Azimuth Distance (km) Brightness Sun altitude
Rises 23:44:31 0° 221° (SW) 2,903 8.0 -17.9°
Reaches altitude 10° 23:47:52 10° 248° (WSW) 1,995 7.4 -18.7°
Maximum altitude 23:49:58 13° 276° (W) 1,787 6.8 -19.2°
Drops below altitude 10° 23:52:04 10° 305° (NW) 1,991 6.6 -19.7°
Sets 23:55:25 0° 333° (NNW) 2,892 7.1 -20.5°
